Simultaneous Nadir Overpasses (SNOs) Predictions

Prediction of SNOs between NPP and TERRA Satellite Orbit:

Table of predicted SNOs for the next 14.0 days since TLE Epoch: 5/11/2013
Index Date (NPP) Time (NPP) Lat,Lon (NPP) SZA (NPP ) Date (TERRA) Time (TERRA) Lat,Lon (TERRA) SZA (TERRA ) Distance(km) Time Diff (sec)
1 05/13/2013 02:55:49 68.31, 134.43 49.79 05/13/2013 02:56:52 68.29, 134.44 49.78 1.49 63
2 05/13/2013 03:46:30 -68.19, -58.10 130.33 05/13/2013 03:46:22 -68.18, -58.06 130.34 1.92 8
3 05/13/2013 04:37:07 67.66, 109.86 49.13 05/13/2013 04:35:55 67.73, 109.06 49.20 34.84 72
4 05/15/2013 19:12:44 68.26,-109.73 49.10 05/15/2013 19:13:17 68.27,-109.69 49.11 2.07 33
5 05/15/2013 20:03:23 -68.09, 57.81 131.08 05/15/2013 20:02:47 -68.11, 57.75 131.06 3.37 36
6 05/18/2013 10:38:59 -68.63,-161.75 131.12 05/18/2013 10:40:11 -68.51,-161.15 131.24 27.45 72
7 05/18/2013 11:29:38 68.22, 6.10 48.46 05/18/2013 11:29:41 68.22, 6.15 48.46 2.32 3
8 05/18/2013 12:20:18 -68.04, 173.64 131.73 05/18/2013 12:19:12 -68.06, 173.60 131.70 3.04 66
9 05/21/2013 02:55:48 -68.27, -45.50 132.05 05/21/2013 02:56:39 -68.28, -45.53 132.04 1.77 51
10 05/21/2013 03:46:32 68.13, 121.98 47.81 05/21/2013 03:46:06 68.15, 121.97 47.83 2.69 26
11 05/21/2013 04:36:58 -67.19, -69.56 133.14 05/21/2013 04:35:50 -67.27, -71.41 133.06 80.02 68
12 05/23/2013 18:22:14 69.00, -98.03 48.19 05/23/2013 18:23:23 68.89, -96.50 48.07 62.29 69
13 05/23/2013 19:12:43 -68.23, 70.32
